Location: Domont
(49.0278°N, 2.3264°E)
Time: 05:00:53
(UTC+00:00)

CUBESAT XI-V - Visible Passes

Search period start: 26 June 2022 00:00
Search period end: 06 July 2022 00:00
Orbit: 666 x 692 km, 98.1° (Epoch: 25 June)

Date Brightness Start Highest point End Pass type
(mag) Time Alt. Az. Time Alt. Az. Time Alt. Az.
26 Jun ? 00:00:16 10° E 00:03:13 17° ENE 00:06:09 10° NNE visible
26 Jun ? 01:36:29 18° S 01:39:58 73° WSW 01:44:36 10° NNW visible
27 Jun ? 00:34:18 10° SE 00:38:23 32° ENE 00:42:28 10° N visible
27 Jun ? 02:12:26 16° SSW 02:15:37 34° W 02:19:50 10° NNW visible
27 Jun ? 23:36:28 10° ENE 23:37:20 10° NE 23:38:12 10° NE visible
28 Jun ? 01:10:00 15° SSE 01:13:44 65° ENE 01:18:18 10° N visible
28 Jun ? 02:48:30 10° SW 02:51:28 17° W 02:54:26 10° NW visible
29 Jun ? 00:09:04 10° ESE 00:12:22 20° ENE 00:15:41 10° NNE visible
29 Jun ? 01:45:57 18° S 01:49:16 60° W 01:53:49 10° NNW visible
30 Jun ? 00:43:30 11° SE 00:47:36 38° ENE 00:51:50 10° N visible
30 Jun ? 02:21:53 15° SSW 02:24:58 28° W 02:28:57 10° NW visible
30 Jun ? 23:44:33 10° E 23:46:27 12° NE 23:48:22 10° NNE visible
01 Jul ? 01:19:27 17° SSE 01:22:59 79° ENE 01:27:35 10° NNW visible
01 Jul ? 02:58:31 10° WSW 03:00:51 14° W 03:03:11 10° WNW visible
02 Jul ? 00:17:55 10° ESE 00:21:32 23° ENE 00:25:09 10° N visible
02 Jul ? 01:55:24 18° SSW 01:58:33 49° W 02:03:01 10° NNW visible
03 Jul ? 00:52:57 13° SE 00:56:48 45° ENE 01:01:11 10° N visible
03 Jul ? 02:31:22 13° SW 02:34:18 23° W 02:37:59 10° NW visible
03 Jul ? 23:53:04 10° E 23:55:35 15° ENE 23:58:05 10° NNE visible
04 Jul ? 01:28:55 19° SSE 01:32:14 86° WSW 01:36:51 10° NNW visible
04 Jul ? 03:08:55 10° WSW 03:10:14 11° W 03:11:32 10° WNW visible
05 Jul ? 00:26:50 10° ESE 00:30:42 27° ENE 00:34:34 10° N visible
05 Jul ? 02:04:51 18° SSW 02:07:50 40° W 02:12:10 10° NNW visible
